This is the latest recevied weather packets stored in our database for station/object G0TQM-11. If no packets are shown the sender has not sent any weather packets the latest 10 day(s).
| Time | Temp. | Humidity | Pressure | Rain* | Wind** | Luminosity | Snow |
|---|---|---|---|---|---|---|---|
| 1788582116 | 17.22° C | 59% | 1016.4 hPa | - | - | - | - |
| 1788580916 | 17.22° C | 59% | 1016 hPa | - | - | - | - |
| 1788579716 | 17.22° C | 57% | 1015.9 hPa | - | - | - | - |
| 1788578516 | 17.22° C | 58% | 1015.7 hPa | - | - | - | - |
| 1788577316 | 17.22° C | 57% | 1015.5 hPa | - | - | - | - |
| 1788576136 | 17.78° C | 58% | 1015.2 hPa | - | - | - | - |
| 1788574916 | 17.78° C | 58% | 1015.2 hPa | - | - | - | - |
| 1788573715 | 17.78° C | 58% | 1014.9 hPa | - | - | - | - |
| 1788572515 | 17.78° C | 58% | 1014.9 hPa | - | - | - | - |
| 1788571323 | 17.78° C | 59% | 1015 hPa | - | - | - | - |
| 1788570122 | 17.78° C | 60% | 1014.8 hPa | - | - | - | - |
| 1788568922 | 17.78° C | 60% | 1014.7 hPa | - | - | - | - |
| 1788567722 | 18.33° C | 58% | 1014.5 hPa | - | - | - | - |
| 1788566522 | 17.78° C | 59% | 1014.3 hPa | - | - | - | - |
| 1788565322 | 17.78° C | 60% | 1014.2 hPa | - | - | - | - |
| 1788564122 | 18.33° C | 58% | 1014.1 hPa | - | - | - | - |
| 1788562922 | 18.33° C | 60% | 1013.9 hPa | - | - | - | - |
| 1788561722 | 18.33° C | 60% | 1013.9 hPa | - | - | - | - |
| 1788560521 | 18.33° C | 61% | 1013.7 hPa | - | - | - | - |
| 1788559321 | 18.33° C | 62% | 1013.5 hPa | - | - | - | - |
| 1788558121 | 18.89° C | 58% | 1013.3 hPa | - | - | - | - |
| 1788556921 | 18.89° C | 58% | 1013.4 hPa | - | - | - | - |
| 1788555723 | 18.89° C | 58% | 1012.9 hPa | - | - | - | - |
| 1788554521 | 18.89° C | 58% | 1012.7 hPa | - | - | - | - |
| 1788553320 | 18.89° C | 56% | 1012.2 hPa | - | - | - | - |
* Rain since midnight (hover to see other rain measurements)
** Current wind speed in m/s (hover to see current wind gust speed)